Date Time,Air Temp,Sky Temp,Clarity,Light Level,Rain Sensor,Readings
2017-05-22 00:00:10,25.0,0.2,24.8,0.0,2.3,112
2017-05-22 00:05:10,25.0,0.0,25.0,0.0,2.3,111
2017-05-22 00:10:10,25.0,-0.6,25.7,0.0,2.3,112
2017-05-22 00:15:10,25.0,-0.9,25.9,0.0,2.3,112
2017-05-22 00:20:10,25.0,-1.2,26.2,0.0,2.3,112
2017-05-22 00:25:10,24.9,-1.6,26.5,0.0,2.3,111
2017-05-22 00:30:10,24.8,-2.0,26.8,0.0,2.3,111
2017-05-22 00:35:10,24.8,-2.4,27.2,0.0,2.3,112
2017-05-22 00:40:10,24.8,-2.6,27.3,0.0,2.3,111
2017-05-22 00:45:10,24.8,-3.2,28.0,0.0,2.3,112
2017-05-22 00:50:10,24.7,-3.5,28.3,0.0,2.3,112
2017-05-22 00:55:10,24.8,-3.8,28.6,0.0,2.3,112
2017-05-22 01:00:10,24.7,-3.7,28.5,0.0,2.3,111
2017-05-22 01:05:10,24.7,-3.3,28.1,0.0,2.3,112
2017-05-22 01:10:10,24.7,-2.8,27.5,0.0,2.3,112
2017-05-22 01:15:10,24.7,-2.3,27.0,0.0,2.4,111
2017-05-22 01:20:10,24.7,-1.4,26.2,0.0,2.4,112
2017-05-22 01:25:10,24.8,-0.9,25.7,0.0,2.3,112
2017-05-22 01:30:10,24.8,-0.6,25.4,0.0,2.3,111
2017-05-22 01:35:10,24.8,-1.1,26.0,0.0,2.3,112
2017-05-22 01:40:10,24.9,-2.4,27.3,0.0,2.3,112
2017-05-22 01:45:10,24.4,-3.7,28.0,0.0,2.3,112
2017-05-22 01:50:10,24.7,-4.2,28.9,0.0,2.4,111
2017-05-22 01:55:10,24.7,-4.2,28.9,0.0,2.3,113
2017-05-22 02:00:10,24.5,-4.5,29.0,0.0,2.3,112
2017-05-22 02:05:10,24.5,-4.3,28.7,0.0,2.3,112
2017-05-22 02:10:10,24.4,-3.8,28.3,0.0,2.3,112
2017-05-22 02:15:10,24.4,-3.3,27.7,0.0,2.3,112
2017-05-22 02:20:10,24.4,-2.8,27.2,0.0,2.3,112
2017-05-22 02:25:10,24.4,-2.9,27.4,0.0,2.3,111
2017-05-22 02:30:10,24.5,-3.9,28.3,0.0,2.3,113
2017-05-22 02:35:10,24.5,-4.6,29.1,0.0,2.3,111
2017-05-22 02:40:10,24.5,-4.9,29.4,0.0,2.3,112
2017-05-22 02:45:10,24.4,-4.9,29.3,0.0,2.3,112
2017-05-22 02:50:10,24.4,-4.9,29.3,0.0,2.3,112
2017-05-22 02:55:10,24.4,-4.9,29.3,0.0,2.4,111
2017-05-22 03:00:10,24.4,-4.8,29.2,0.0,2.4,112
2017-05-22 03:05:10,24.4,-4.8,29.1,0.0,2.4,111
2017-05-22 03:10:10,24.4,-4.7,29.1,0.0,2.4,112
2017-05-22 03:15:10,24.3,-4.8,29.1,0.0,2.6,112
2017-05-22 03:20:10,24.3,-4.7,29.0,0.0,2.6,112
2017-05-22 03:25:10,24.3,-4.7,29.0,0.0,2.7,112
2017-05-22 03:30:10,24.3,-4.8,29.1,0.0,2.7,112
2017-05-22 03:35:10,24.3,-4.7,29.0,0.0,2.7,112
2017-05-22 03:40:10,24.3,-4.7,29.0,0.0,2.7,111
2017-05-22 03:45:10,24.3,-5.0,29.3,0.0,2.7,112
2017-05-22 03:50:10,24.3,-5.1,29.4,0.1,2.7,111
2017-05-22 03:55:10,24.3,-5.1,29.4,0.1,2.7,112
2017-05-22 04:00:10,24.3,-5.0,29.3,0.2,2.7,111
2017-05-22 04:05:10,24.2,-5.0,29.2,0.4,2.7,111
2017-05-22 04:10:10,24.2,-4.4,28.6,0.7,2.6,112
2017-05-22 04:15:10,24.2,-3.4,27.6,1.2,2.6,112
2017-05-22 04:20:10,24.2,-2.1,26.3,2.2,2.6,112
2017-05-22 04:25:10,24.2,-1.5,25.8,3.9,2.6,111
2017-05-22 04:30:10,24.3,-2.7,26.9,6.2,2.7,112
2017-05-22 04:35:10,24.3,-3.5,27.8,9.5,2.7,111
2017-05-22 04:40:10,24.3,-3.3,27.6,13.5,2.7,112
2017-05-22 04:45:10,24.3,-2.5,26.9,18.0,2.7,112
2017-05-22 04:50:10,24.4,-2.0,26.4,22.5,2.7,112
2017-05-22 04:55:10,24.4,-1.8,26.2,26.3,2.7,111
2017-05-22 05:00:10,24.4,-1.2,25.6,28.3,2.6,112
2017-05-22 05:05:10,24.4,-0.4,24.8,28.9,2.5,112
2017-05-22 05:10:10,24.5,-0.2,24.6,29.5,2.5,112
2017-05-22 05:15:10,24.5,-0.3,24.8,30.1,2.3,112
2017-05-22 05:20:10,24.6,-0.1,24.7,30.6,2.3,111
2017-05-22 05:25:10,24.6,0.2,24.4,31.1,2.3,112
2017-05-22 05:30:10,24.7,0.8,24.0,31.5,2.3,111
2017-05-22 05:35:10,24.5,1.5,23.1,31.7,2.3,111
2017-05-22 05:40:10,25.2,1.9,23.4,31.9,2.3,111
2017-05-22 05:45:10,25.4,2.0,23.4,32.0,2.3,111
2017-05-22 05:50:10,25.5,1.9,23.5,32.1,2.3,111
2017-05-22 05:55:10,25.4,1.5,23.8,32.1,2.3,112
2017-05-22 06:00:10,25.4,0.8,24.6,32.1,2.3,110
2017-05-22 06:05:04,25.3,0.0,25.3,32.1,2.3,72
2017-05-22 06:10:04,25.4,0.8,24.5,32.2,2.3,111
2017-05-22 06:15:04,25.5,1.8,23.7,32.2,2.3,111
2017-05-22 06:20:04,25.6,2.8,22.8,32.3,2.3,111
2017-05-22 06:25:04,25.7,3.7,22.0,32.2,2.4,112
2017-05-22 06:30:04,25.9,4.4,21.5,32.2,2.4,111
2017-05-22 06:35:04,26.0,4.4,21.6,32.1,2.3,112
2017-05-22 06:40:04,26.1,4.7,21.4,32.2,2.3,111
2017-05-22 06:45:04,26.1,4.4,21.7,32.3,2.3,112
2017-05-22 06:50:04,26.1,4.5,21.6,32.3,2.3,112
2017-05-22 06:55:04,26.1,4.3,21.8,32.3,2.3,111
2017-05-22 07:00:04,26.0,4.4,21.6,32.3,2.3,112
2017-05-22 07:05:04,26.1,4.1,22.1,32.4,2.3,112
2017-05-22 07:10:04,26.2,3.1,23.2,32.4,2.3,111
2017-05-22 07:15:04,26.3,2.2,24.1,32.4,2.3,111
2017-05-22 07:20:05,26.4,0.6,25.7,32.4,2.3,112
2017-05-22 07:25:05,26.4,-0.6,27.0,32.4,2.3,112
2017-05-22 07:30:05,26.4,-1.2,27.6,32.4,2.3,111
2017-05-22 07:35:05,26.4,-1.2,27.6,32.4,2.3,112
2017-05-22 07:40:05,26.5,-1.5,28.0,32.4,2.3,112
2017-05-22 07:45:05,26.8,-1.6,28.4,32.4,2.3,111
2017-05-22 07:50:05,27.2,-2.0,29.2,32.4,2.3,112
2017-05-22 07:55:05,27.6,-1.7,29.3,32.4,2.3,112
2017-05-22 08:00:05,28.1,-1.4,29.5,32.4,2.5,112
2017-05-22 08:05:05,28.7,-0.1,28.8,32.4,2.4,111
2017-05-22 08:10:05,29.4,0.5,28.8,32.4,2.3,112
2017-05-22 08:15:05,29.9,1.0,28.9,32.5,2.3,111
2017-05-22 08:20:05,30.3,0.8,29.4,32.5,2.3,111
2017-05-22 08:25:05,30.4,1.4,29.0,32.5,2.3,111
2017-05-22 08:30:05,30.5,0.9,29.5,32.5,2.3,111
2017-05-22 08:35:05,30.5,0.8,29.8,32.5,2.4,112
2017-05-22 08:40:05,30.4,0.5,29.9,32.5,2.4,111
2017-05-22 08:45:05,29.9,1.6,28.3,32.5,2.3,111
2017-05-22 08:50:05,29.6,2.5,27.1,32.5,2.3,112
2017-05-22 08:55:05,29.7,3.0,26.7,32.5,2.3,111
2017-05-22 09:00:05,29.2,2.5,26.7,32.5,2.3,111
2017-05-22 09:05:05,29.9,2.4,27.5,32.5,2.3,111
2017-05-22 09:10:05,29.9,2.1,27.8,32.5,2.3,111
2017-05-22 09:15:05,30.0,3.0,27.0,32.5,2.3,111
2017-05-22 09:20:05,30.3,4.8,25.6,32.5,2.4,112
2017-05-22 09:25:05,30.9,5.9,25.0,32.5,2.3,111
2017-05-22 09:30:05,31.4,6.1,25.3,32.5,2.3,111
2017-05-22 09:35:05,31.7,4.5,27.2,32.5,2.3,112
2017-05-22 09:40:05,31.5,4.2,27.3,32.5,2.3,111
2017-05-22 09:45:05,31.4,4.5,27.0,32.5,2.3,112
2017-05-22 09:50:05,31.6,4.0,27.7,32.5,2.3,112
2017-05-22 09:55:05,31.8,4.3,27.5,32.5,2.3,111
2017-05-22 10:00:05,32.1,5.7,26.4,32.5,2.3,111
2017-05-22 10:05:05,32.7,5.9,26.8,32.5,2.3,112
2017-05-22 10:10:05,32.7,6.0,26.7,32.5,2.3,111
2017-05-22 10:15:05,32.2,5.9,26.3,32.5,2.3,112
2017-05-22 10:20:05,31.8,5.2,26.6,32.5,2.3,111
2017-05-22 10:25:05,31.5,5.8,25.7,32.5,2.3,112
2017-05-22 10:30:05,31.8,6.4,25.5,32.6,2.3,111
2017-05-22 10:35:05,32.4,7.5,25.0,32.6,2.3,112
2017-05-22 10:40:05,33.1,9.2,23.9,32.6,2.3,111
2017-05-22 10:45:05,33.4,8.8,24.6,32.6,2.3,112
2017-05-22 10:50:05,33.2,7.6,25.6,32.6,1.8,111
2017-05-22 10:55:05,32.9,6.6,26.3,32.6,2.2,112
2017-05-22 11:00:05,32.9,5.5,27.4,32.5,2.3,112
2017-05-22 11:05:05,32.8,5.8,27.1,32.6,2.3,111
2017-05-22 11:10:05,32.7,4.5,28.2,32.6,2.2,111
2017-05-22 11:15:05,33.9,6.3,27.5,32.6,1.6,112
2017-05-22 11:20:05,35.4,6.4,29.0,32.6,1.4,111
2017-05-22 11:25:05,35.9,7.0,28.9,32.6,1.6,111
2017-05-22 11:30:05,35.8,6.8,29.0,32.6,1.6,111
2017-05-22 11:35:05,35.3,8.4,26.9,32.6,1.6,112
2017-05-22 11:40:05,35.2,8.2,27.0,32.6,1.6,111
2017-05-22 11:45:05,35.1,7.2,27.8,32.6,1.5,112
2017-05-22 11:50:05,35.0,8.5,26.6,32.6,1.5,111
2017-05-22 11:55:05,35.3,7.4,27.9,32.6,1.6,111
2017-05-22 12:00:05,34.8,4.2,30.6,32.6,1.5,112
2017-05-22 12:05:05,34.5,4.6,29.9,32.6,1.4,111
2017-05-22 12:10:05,34.8,4.5,30.4,32.6,1.4,112
2017-05-22 12:15:05,35.2,4.2,31.0,32.6,1.6,111
2017-05-22 12:20:05,35.2,6.1,29.1,32.6,1.6,111
2017-05-22 12:25:05,36.1,4.8,31.2,32.6,1.9,112
2017-05-22 12:30:05,35.4,2.9,32.5,32.6,1.8,112
2017-05-22 12:35:05,34.6,7.3,27.3,32.6,1.7,111
2017-05-22 12:40:05,36.2,6.0,30.3,32.6,1.9,112
2017-05-22 12:45:05,36.0,3.4,32.7,32.6,1.9,111
2017-05-22 12:50:05,35.1,4.3,30.8,32.6,1.8,112
2017-05-22 12:55:05,35.6,8.2,27.3,32.6,1.8,111
2017-05-22 13:00:05,37.8,7.8,30.0,32.6,2.3,111
2017-05-22 13:05:05,38.4,7.2,31.2,32.6,2.6,112
2017-05-22 13:10:05,38.5,6.0,32.5,32.6,2.7,111
2017-05-22 13:15:05,38.0,5.5,32.5,32.6,2.6,112
2017-05-22 13:20:05,37.7,7.0,30.7,32.6,2.5,111
2017-05-22 13:25:05,37.6,6.7,30.9,32.6,2.4,112
2017-05-22 13:30:05,38.1,7.9,30.2,32.6,2.7,112
2017-05-22 13:35:05,37.8,7.0,30.8,32.6,2.6,111
2017-05-22 13:40:05,38.0,9.3,28.8,32.6,2.7,112
2017-05-22 13:45:05,39.0,9.9,29.1,32.6,2.8,111
2017-05-22 13:50:05,39.6,8.7,30.8,32.6,2.6,111
2017-05-22 13:55:05,38.5,5.1,33.3,32.6,2.8,112
2017-05-22 14:00:05,36.9,6.2,30.7,32.6,2.5,111
2017-05-22 14:05:05,36.6,6.9,29.7,32.6,2.4,112
2017-05-22 14:10:05,36.2,5.3,30.9,32.6,2.3,111
2017-05-22 14:15:05,35.7,6.7,29.0,32.6,2.1,112
2017-05-22 14:20:05,35.9,6.8,29.2,32.6,2.1,111
2017-05-22 14:25:05,35.9,7.3,28.7,32.6,2.1,112
2017-05-22 14:30:05,36.1,6.8,29.3,32.6,2.1,111
2017-05-22 14:35:05,35.9,6.1,29.8,32.6,2.1,111
2017-05-22 14:40:05,35.6,7.4,28.3,32.6,2.1,112
2017-05-22 14:45:05,36.0,8.1,27.8,32.6,2.1,111
2017-05-22 14:50:05,36.4,9.0,27.4,32.6,2.3,112
2017-05-22 14:55:05,36.7,7.8,28.9,32.6,2.4,111
2017-05-22 15:00:05,36.7,9.8,26.9,32.6,2.4,112
2017-05-22 15:05:05,37.3,9.7,27.6,32.6,2.5,111
2017-05-22 15:10:05,37.7,9.6,28.1,32.6,2.7,112
2017-05-22 15:15:05,37.5,7.6,29.9,32.6,2.6,111
2017-05-22 15:20:05,36.7,8.1,28.5,32.6,2.4,112
2017-05-22 15:25:05,36.7,9.0,27.7,32.6,2.4,111
2017-05-22 15:30:05,36.6,7.3,29.3,32.6,2.4,112
2017-05-22 15:35:05,36.7,10.0,26.7,32.6,2.4,111
2017-05-22 15:40:05,37.2,9.4,27.8,32.6,2.5,112
2017-05-22 15:45:05,37.5,8.7,28.8,32.6,2.7,111
2017-05-22 15:50:05,37.3,8.4,28.9,32.6,2.6,112
2017-05-22 15:55:05,37.0,8.2,28.8,32.6,2.5,111
2017-05-22 16:00:05,36.8,8.0,28.8,32.6,2.4,112
2017-05-22 16:05:05,36.5,8.0,28.5,32.6,2.4,111
2017-05-22 16:10:05,36.4,8.0,28.3,32.6,2.4,112
2017-05-22 16:15:05,36.4,8.2,28.2,32.6,2.4,111
2017-05-22 16:20:05,36.5,8.2,28.3,32.6,2.4,111
2017-05-22 16:25:05,36.2,6.4,29.8,32.6,2.4,112
2017-05-22 16:30:05,35.7,6.3,29.4,32.6,2.3,111
2017-05-22 16:35:05,35.3,7.0,28.3,32.6,2.1,112
2017-05-22 16:40:05,35.2,6.4,28.8,32.6,2.1,111
2017-05-22 16:45:05,35.2,6.2,29.1,32.6,2.1,112
2017-05-22 16:50:05,35.3,7.6,27.7,32.6,2.1,111
2017-05-22 16:55:05,35.6,6.3,29.4,32.6,2.1,112
2017-05-22 17:00:05,35.6,6.6,29.0,32.6,2.1,111
2017-05-22 17:05:05,35.8,7.6,28.2,32.6,2.2,111
2017-05-22 17:10:05,36.4,6.4,30.0,32.6,2.4,112
2017-05-22 17:15:05,36.0,5.9,30.1,32.6,2.3,112
2017-05-22 17:20:05,35.9,6.5,29.4,32.6,2.4,111
2017-05-22 17:25:05,35.9,6.2,29.7,32.6,2.4,111
2017-05-22 17:30:05,35.8,4.9,31.0,32.6,2.3,112
2017-05-22 17:35:05,35.4,4.8,30.5,32.6,2.1,111
2017-05-22 17:40:05,35.0,4.3,30.7,32.6,2.1,111
2017-05-22 17:45:05,34.8,4.7,30.1,32.6,2.0,112
2017-05-22 17:50:05,34.5,4.6,30.0,32.6,1.9,111
2017-05-22 17:55:05,34.8,6.5,28.3,32.6,1.9,112
2017-05-22 18:00:05,35.2,4.8,30.4,32.6,2.0,111
2017-05-22 18:05:05,35.0,4.0,31.0,32.6,2.0,112
2017-05-22 18:10:05,34.5,3.4,31.1,32.6,1.9,111
2017-05-22 18:15:05,34.0,3.5,30.6,32.6,1.8,111
2017-05-22 18:20:05,33.8,3.8,30.0,32.6,1.7,112
2017-05-22 18:25:05,33.8,4.2,29.7,32.6,1.7,112
2017-05-22 18:30:05,34.0,4.4,29.6,32.6,1.7,112
2017-05-22 18:35:05,34.2,3.7,30.5,32.6,1.8,111
2017-05-22 18:40:05,34.2,3.6,30.6,32.6,1.8,111
2017-05-22 18:45:05,34.1,3.7,30.3,32.6,1.7,112
2017-05-22 18:50:05,33.7,3.4,30.3,32.6,1.6,112
2017-05-22 18:55:05,33.8,5.0,28.8,32.6,1.6,112
2017-05-22 19:00:05,33.9,3.0,30.9,32.6,1.7,111
2017-05-22 19:05:05,33.6,2.9,30.7,32.6,1.6,111
2017-05-22 19:10:05,33.2,2.3,30.9,32.6,1.5,111
2017-05-22 19:15:05,32.9,2.9,30.0,32.6,1.3,111
2017-05-22 19:20:05,33.0,3.1,29.9,32.5,1.3,111
2017-05-22 19:25:05,32.9,1.0,31.9,32.5,1.3,111
2017-05-22 19:30:05,32.1,0.6,31.5,32.5,1.6,111
2017-05-22 19:35:05,31.2,0.0,31.2,32.4,2.1,112
2017-05-22 19:40:05,30.3,0.1,30.2,32.4,2.3,111
2017-05-22 19:45:05,29.8,0.9,28.9,32.5,2.4,111
2017-05-22 19:50:05,29.5,0.7,28.8,32.4,2.3,111
2017-05-22 19:55:05,29.2,-0.3,29.4,32.4,2.4,112
2017-05-22 20:00:05,28.6,-0.6,29.1,32.4,2.3,112
2017-05-22 20:05:05,28.1,-1.0,29.1,32.3,2.4,112
2017-05-22 20:10:05,27.7,-1.3,29.0,32.3,2.3,111
2017-05-22 20:15:05,27.3,-1.6,28.9,32.2,2.3,111
2017-05-22 20:20:05,27.0,-1.6,28.6,32.2,2.4,112
2017-05-22 20:25:05,26.6,-2.0,28.6,32.0,2.4,112
2017-05-22 20:30:05,26.3,-2.3,28.6,31.9,2.4,112
2017-05-22 20:35:05,26.0,-2.2,28.2,31.8,2.6,111
2017-05-22 20:40:05,25.8,-1.9,27.7,31.5,2.6,111
2017-05-22 20:45:05,25.7,-1.6,27.3,31.2,2.4,112
2017-05-22 20:50:05,25.6,-1.6,27.2,30.8,2.3,111
2017-05-22 20:55:05,25.6,-1.1,26.8,30.3,2.3,111
2017-05-22 21:00:05,25.7,-1.1,26.7,29.8,2.3,112
2017-05-22 21:05:05,25.7,-1.1,26.8,29.1,2.3,112
2017-05-22 21:10:05,25.7,-1.0,26.7,28.2,2.3,111
2017-05-22 21:15:05,25.6,-1.2,26.8,26.2,2.3,112
2017-05-22 21:20:05,25.5,-2.1,27.5,22.1,2.4,111
2017-05-22 21:25:05,25.2,-1.6,26.8,17.0,2.4,112
2017-05-22 21:30:05,25.0,-1.5,26.5,12.5,2.3,111
2017-05-22 21:35:05,24.9,-1.2,26.1,8.6,2.3,112
2017-05-22 21:40:05,24.8,-1.2,25.9,5.4,2.3,111
2017-05-22 21:45:05,24.8,-0.7,25.4,3.2,2.3,112
2017-05-22 21:50:05,24.7,-0.7,25.4,1.9,2.3,112
2017-05-22 21:55:05,24.7,-0.8,25.5,1.1,2.3,112
2017-05-22 22:00:05,24.7,-1.1,25.8,0.6,2.4,112
2017-05-22 22:05:05,24.8,-0.8,25.6,0.3,2.5,111
2017-05-22 22:10:05,24.8,-1.1,25.9,0.2,2.5,112
2017-05-22 22:15:05,24.7,-0.8,25.5,0.1,2.4,112
2017-05-22 22:20:06,24.5,-0.7,25.3,0.0,2.4,112
2017-05-22 22:25:06,24.4,-0.2,24.6,0.0,2.4,112
2017-05-22 22:30:06,24.4,-0.3,24.6,0.0,2.5,111
2017-05-22 22:35:06,24.3,-0.6,24.9,0.0,2.4,112
2017-05-22 22:40:06,24.2,-0.6,24.8,0.0,2.4,112
2017-05-22 22:45:06,24.1,-0.3,24.5,0.0,2.3,112
2017-05-22 22:50:06,24.1,-0.2,24.3,0.0,2.3,112
2017-05-22 22:55:06,24.0,-0.3,24.3,0.0,2.3,112
2017-05-22 23:00:06,24.0,-0.5,24.5,0.0,2.3,112
2017-05-22 23:05:06,23.9,-0.7,24.6,0.0,2.3,111
2017-05-22 23:10:06,23.9,-1.4,25.3,0.0,2.3,112
2017-05-22 23:15:06,23.9,-1.4,25.3,0.0,2.3,112
2017-05-22 23:20:06,24.0,-1.3,25.2,0.0,2.3,111
2017-05-22 23:25:06,24.1,-1.6,25.7,0.0,2.3,112
2017-05-22 23:30:06,24.3,-1.9,26.2,0.0,2.3,112
2017-05-22 23:35:06,23.9,-2.2,26.1,0.0,2.3,111
2017-05-22 23:40:06,24.2,-2.3,26.5,0.0,2.3,112
2017-05-22 23:45:06,24.1,-2.1,26.2,0.0,2.3,111
2017-05-22 23:50:06,24.0,-1.6,25.6,0.0,2.3,112
2017-05-22 23:55:06,24.0,-1.4,25.4,0.0,2.3,111
